Regional Weather Roundup
Issued by NWS

Home | Current Version | Previous Version | Text Only | Print | Product List | Glossary Off
Versions: 1 2 3 4 5 6 7 8 9 10 11 12 13 14 15 16 17 18 19 20 21 22 23 24 25 26 27 28 29 30 31 32 33 34 35 36 37 38 39 40 41 42 43 44 45 46 47 48 49 50

000
ASUS45 KBOI 290410
RWRID
WEATHER ROUNDUP FOR IDAHO
NATIONAL WEATHER SERVICE BOISE ID
1000 PM MDT THU AUG 28 2014

NOTE: "FAIR" INDICATES FEW OR NO CLOUDS BELOW 12000 FEET
WITH NO SIGNIFICANT WEATHER AND/OR OBSTRUCTIONS TO VISIBILITY

IDZ012-014-290500-
SOUTHWEST IDAHO


CITY           SKY/WX    TMP DP  RH WIND       PRES   REMARKS
BOISE          CLEAR     76  38  25 S6        29.93S
CALDWELL       CLEAR     73  48  40 CALM      29.94R
MOUNTAIN HOME  CLEAR     78  41  26 NW3       29.96R
$$

IDZ016-017-290500-
SOUTHCENTRAL IDAHO


CITY           SKY/WX    TMP DP  RH WIND       PRES   REMARKS
BURLEY         CLEAR     65  52  62 CALM      30.04R
JEROME         PTCLDY    67  46  47 CALM      30.04S
TWIN FALLS     PTCLDY    69  47  45 SW5       30.05S
$$

IDZ019>023-290500-
SOUTHEAST IDAHO


CITY           SKY/WX    TMP DP  RH WIND       PRES   REMARKS
IDAHO FALLS    PTCLDY    73  44  35 S12       30.06S
POCATELLO      CLEAR     70  41  34 S12       30.06S
REXBURG        PTCLDY    70  41  34 S6        30.07R
$$

IDZ006-010-011-018-031-032-290500-
CENTRAL IDAHO MOUNTAINS


CITY           SKY/WX    TMP DP  RH WIND       PRES   REMARKS
MCCALL         CLEAR     69  38  32 N7        30.09R
HAILEY         PTCLDY    64  45  48 NW5       30.13R
STANLEY          N/A     52  36  54 S5        30.21R
SALMON         PTCLDY    72  45  37 NE7       29.99R
CHALLIS        CLEAR     75  35  23 W12       30.07R
$$

IDZ002-004-006-007-026-290500-
NORTHERN IDAHO


CITY           SKY/WX    TMP DP  RH WIND       PRES   REMARKS
LEWISTON       CLEAR     77  41  27 W3        29.94R
LOWELL           N/A     65  56  72 N3        29.98R
COEUR D`ALENE  CLEAR     66  41  39 SW3       29.96R
MULLAN PASS    PTCLDY    55  36  48 VRB6      30.15R
$$



USA.gov is the U.S. government's official web portal to all federal, state and local government web resources and services.